Regional Weather Roundup
Issued by NWS

Home | Current Version | Previous Version | Graphics & Text | Print | Product List | Glossary On
Versions: 1 2 3 4 5 6 7 8 9 10 11 12 13 14 15 16 17 18 19 20 21 22 23 24 25 26 27 28 29 30 31 32 33 34 35 36 37 38 39 40 41 42 43 44 45 46 47 48 49 50
000
ASUS43 KBIS 161902
RWRND

NORTH DAKOTA REGIONAL WEATHER ROUNDUP
NATIONAL WEATHER SERVICE BISMARCK ND
100 PM CST TUE JAN 16 2018

NOTE: "FAIR" INDICATES FEW OR NO CLOUDS BELOW 12,000 FEET WITH NO
SIGNIFICANT WEATHER AND/OR OBSTRUCTIONS TO VISIBILITY.


NDZ001>003-009>011-017-162000-
NORTHWEST NORTH DAKOTA

CITY           SKY/WX    TMP DP  RH WIND       PRES   REMARKS
WILLISTON      SUNNY      4  -9  55 VRB3      30.36F
MINOT          CLOUDY     9  -8  46 S18G24    30.38F WCI -10
MINOT AFB      CLOUDY    10  -6  48 S14       30.37F WCI  -6
$$

NDZ018>021-031>035-040>046-162000-
SOUTHWEST NORTH DAKOTA

CITY           SKY/WX    TMP DP  RH WIND       PRES   REMARKS
BISMARCK       SUNNY      1 -10  60 VRB6      30.54F WCI -10
DICKINSON      SUNNY     12  -5  46 S18       30.32F WCI  -6
GARRISON         N/A      2  -7  66 SE9       30.43F WCI -13
HETTINGER ARPT SUNNY      9  -6  50 S13       30.40F WCI  -7
$$

NDZ004>008-012>016-024-026-027-054-162000-
NORTHEAST NORTH DAKOTA

CITY           SKY/WX    TMP DP  RH WIND       PRES   REMARKS
GRAND FORKS    CLOUDY     0  -8  69 S14       30.60F WCI -19
GRND FRKS AFB  CLOUDY     2  -9  60 S12       30.58F WCI -15
DEVILS LAKE    FAIR       3  -7  63 SW15      30.50F WCI -16
$$

NDZ022-023-025-028>030-036>039-047>053-162000-
SOUTHEAST NORTH DAKOTA

CITY           SKY/WX    TMP DP  RH WIND       PRES   REMARKS
FARGO          FAIR      -1 -10  65 S8        30.67F WCI -15
JAMESTOWN      CLOUDY     4  -7  60 SW13      30.54F WCI -13
$$




USA.gov is the U.S. government's official web portal to all federal, state and local government web resources and services.